Temperature
16 16 16 16 16 16 16 17 17 17 17 17 17 17 17 17 17 17 17 17 17 17 17 17 17 18 18 18 18 18 18 18 18 18 18 18 18 18 18 18 18 18 18
16 16 16 16 16 16 16 16 16 16 17 17 17 17 17 17 17 17 17 17 17 17 17 17 17 17 17 17 18 18 18 18 18 18 18 18 18 18 18 18 18 18 18
16 16 16 16 16 16 16 16 16 16 16 17 17 17 17 17 17 17 17 17 17 17 17 17 17 17 17 17 17 18 18 18 18 18 18 17 17 18 18 18 18 18 18
16 16 16 16 16 16 16 16 16 16 16 16 16 17 17 17 17 17 17 17 17 17 17 17 17 17 17 17 17 17 17 17 17 17 17 17 17 17 18 18 18 18 18
16 16 16 16 16 16 16 16 16 16 16 16 16 16 17 17 17 17 17 17 17 17 17 17 17 17 17 17 17 17 17 17 17 17 17 17 17 17 18 18 18 18 18
16 16 16 16 16 16 16 16 16 16 16 16 16 16 16 16 17 17 17 17 17 17 17 17 17 17 17 17 17 17 17 17 17 16 17 17 17 17 17 17 17 17 17
16 16 16 16 16 16 16 16 16 16 16 16 16 16 16 16 16 16 16 16 16 16 17 16 17 17 17 17 17 17 17 17 16 16 17 17 17 17 17 17 17 17 17
16 16 16 16 16 16 16 16 16 16 16 16 16 16 16 16 16 16 16 16 16 16 16 16 16 17 17 17 17 17 17 16 16 16 16 16 17 17 17 17 17 17 17
16 16 16 16 16 16 16 16 16 16 16 16 16 16 16 16 16 16 16 16 16 16 16 16 16 16 16 17 17 17 17 16 16 16 16 16 17 17 17 17 17 17 17
16 16 16 16 16 16 16 16 16 16 16 16 16 16 16 16 16 16 16 16 16 16 16 16 16 16 16 16 16 16 16 16 16 16 16 16 16 16 16 16 16 16 17
16 16 16 16 16 16 16 16 16 16 16 16 16 16 16 16 15 16 16 16 16 16 16 16 16 16 16 16 16 16 16 15 15 15 16 16 16 16 16 16 16 16 16
17 17 17 16 16 16 16 16 16 16 16 16 15 15 15 15 15 16 16 16 16 16 16 16 16 16 16 16 16 16 15 15 15 15 15 16 16 16 16 16 16 16 16
17 17 17 17 16 16 16 16 16 16 16 15 15 15 15 15 15 15 15 15 15 15 15 15 15 15 16 16 15 15 15 15 15 15 15 15 15 15 16 16 16 16 16
17 17 17 16 16 16 16 16 16 16 16 16 15 15 15 15 15 15 15 15 15 15 15 15 15 15 15 15 15 15 15 15 15 15 15 15 15 15 15 15 15 15 15
17 17 17 16 16 16 16 16 16 16 16 16 15 15 15 15 15 15 15 15 15 15 15 15 15 15 15 15 15 15 15 15 15 14 14 15 15 15 15 15 15 15 15
17 17 16 16 16 16 16 16 16 16 16 16 15 15 15 15 15 15 15 15 15 15 15 15 15 15 15 15 15 15 14 14 14 14 14 14 14 15 15 15 15 15 15
17 17 16 16 16 16 16 16 16 16 16 16 15 15 15 15 15 15 15 15 15 15 15 15 15 15 14 14 14 14 14 14 14 14 14 14 14 14 14 14 14 14 15
17 17 16 16 16 16 16 16 16 16 16 15 15 15 15 15 15 15 15 15 15 15 15 15 14 14 14 14 14 14 14 14 14 14 14 14 14 14 14 14 14 14 14
17 17 16 16 16 16 16 16 15 16 15 15 15 15 15 15 15 15 15 15 15 15 15 14 14 14 14 14 14 14 14 14 14 14 14 14 14 14 14 14 14 14 14
17 17 16 16 16 16 16 16 15 15 15 15 15 15 15 15 15 15 15 15 15 15 15 14 14 14 14 14 14 14 14 14 14 14 14 14 14 13 13 13 13 13 14
17 17 16 16 16 16 16 15 15 15 15 15 15 15 15 15 15 15 15 15 15 15 15 14 14 14 14 14 14 14 14 14 14 13 13 13 13 13 13 13 13 13 13
17 17 17 16 16 16 15 15 15 15 15 15 15 15 15 15 15 15 15 15 15 15 15 14 14 14 14 14 14 14 14 14 13 13 13 13 13 13 13 13 13 13 13
17 17 16 16 16 16 15 15 15 15 15 15 15 15 15 15 15 15 15 15 15 15 14 14 14 14 14 14 14 14 15 15 14 13 13 13 13 13 13 13 13 13 13
17 16 16 16 16 15 15 15 15 15 15 15 15 15 15 15 15 15 15 15 15 14 15 14 14 14 14 14 14 14 14 14 14 14 13 13 13 13 13 13 13 12 12
17 16 16 16 16 15 15 15 15 15 15 15 15 15 15 15 15 15 14 14 14 14 14 14 14 14 14 14 14 14 14 14 14 14 14 13 13 13 13 13 12 12 12
16 16 16 16 16 15 15 15 15 15 15 15 15 15 14 14 14 14 14 14 14 14 14 14 14 14 14 14 14 14 14 14 14 14 14 13 13 12 12 12 12 12 12
Wind_Speed
4 4 6 5 6 7 7 7 8 8 8 8 8 9 8 8 7 7 7 7 7 7 8 8 8 8 8 8 8 8 7 8 9 10 10 8 8 7 6 5 4 6 7
4 5 6 5 6 6 7 7 8 8 9 9 9 9 9 9 8 7 7 7 7 8 8 8 8 8 8 8 8 9 8 9 9 9 9 9 9 8 7 6 4 6 7
4 5 5 5 6 6 6 7 7 7 8 9 9 10 10 9 9 9 8 8 8 8 8 8 8 8 9 9 9 9 9 9 9 8 6 7 8 8 7 6 6 6 6
5 5 6 6 5 6 7 7 7 8 8 8 9 9 10 9 9 9 9 9 9 8 8 8 9 9 10 10 9 9 10 9 8 4 5 7 7 9 7 7 6 7 6
5 5 6 5 6 7 7 7 8 8 8 8 8 8 9 9 9 9 9 9 9 9 9 9 9 9 10 9 9 9 9 9 7 5 7 7 7 9 8 7 6 7 6
6 6 8 7 7 7 7 7 8 8 8 8 8 8 8 9 9 9 9 9 9 10 10 10 9 9 9 9 9 9 9 7 5 8 7 7 8 9 8 8 7 7 7
6 6 8 7 7 7 7 8 8 8 8 8 8 8 9 9 9 9 10 10 10 11 11 11 11 10 10 9 9 9 9 6 7 7 7 8 9 9 9 9 8 8 7
6 6 7 7 6 7 7 8 8 8 8 9 9 9 9 9 9 9 10 10 11 11 11 12 11 11 10 10 10 10 8 5 7 7 7 8 10 9 9 9 9 8 8
5 6 6 6 6 6 6 7 7 8 9 9 10 10 10 10 10 9 10 10 11 11 11 11 11 12 12 12 12 11 10 7 7 7 7 8 10 9 9 9 9 9 8
5 5 5 5 5 6 7 7 7 8 9 10 10 10 10 9 10 9 9 10 11 12 12 12 12 13 14 13 12 10 7 4 7 7 7 10 10 9 9 9 9 8 8
4 4 5 5 5 6 6 6 6 7 7 7 9 8 5 7 9 9 12 10 11 12 12 12 11 11 12 12 11 7 5 6 7 7 9 11 10 10 10 9 8 8 7
5 5 4 4 5 5 5 5 5 6 6 7 7 7 7 7 8 8 10 10 10 11 11 11 9 8 6 8 8 4 6 7 7 7 10 11 10 9 9 9 8 8 8
4 4 4 4 5 5 4 5 5 5 5 6 7 7 6 6 6 6 6 7 7 7 8 8 7 7 8 7 6 7 8 7 7 8 10 11 10 9 9 9 8 8 8
4 4 4 4 4 5 4 4 4 4 4 5 5 6 5 4 4 5 5 6 5 6 6 7 6 8 8 8 8 8 8 7 7 7 10 11 10 9 9 9 9 8 8
4 3 4 3 4 4 4 3 4 4 4 5 5 5 5 4 4 5 5 5 6 6 6 6 6 8 7 8 8 8 8 8 7 7 8 11 10 10 9 9 9 9 9
4 4 4 4 4 3 3 3 4 4 4 4 4 4 5 4 4 4 5 5 5 5 5 6 7 6 6 7 7 8 8 7 7 7 7 9 11 11 10 10 10 10 10
3 4 4 3 4 4 4 4 3 3 4 4 4 4 5 4 4 3 3 4 4 5 5 5 7 6 6 6 6 7 7 8 8 8 7 7 8 11 12 12 11 11 11
3 4 4 3 3 4 3 3 3 3 3 3 3 3 4 4 3 3 3 3 4 4 4 4 4 5 5 5 5 5 6 7 8 8 8 8 7 8 11 12 12 12 12
3 4 4 3 3 3 3 3 2 3 3 2 2 2 3 3 3 3 3 3 4 4 4 3 4 4 4 5 5 5 5 6 6 7 8 9 8 8 8 11 11 12 12
3 3 4 3 2 3 2 2 2 2 2 2 2 2 2 2 2 2 3 3 3 3 3 3 4 4 4 3 4 5 5 5 5 6 7 7 8 8 8 8 8 9 11
3 3 3 3 3 2 2 1 1 1 1 1 1 2 1 1 1 2 2 3 2 3 3 4 4 4 3 3 3 3 4 5 5 5 5 5 7 7 7 7 7 7 7
4 3 3 2 2 2 1 1 1 1 1 1 1 2 1 1 1 1 2 2 3 2 3 4 3 2 2 1 0 1 1 3 3 3 3 4 5 6 7 7 7 7 6
4 4 3 2 2 2 2 1 1 1 1 1 2 1 1 1 1 1 1 2 3 3 3 3 3 3 2 1 1 1 1 1 1 2 3 3 4 4 5 6 7 7 7
5 4 4 3 3 2 2 1 1 0 0 0 0 1 1 1 1 1 1 2 2 2 3 3 3 2 2 1 1 1 1 0 1 1 2 3 4 4 4 4 5 6 6
6 5 4 3 3 3 2 1 1 1 0 0 0 1 1 1 1 1 1 2 2 2 2 2 2 3 2 2 1 0 0 1 2 1 1 1 2 3 3 4 4 5 5
5 5 4 4 3 3 2 2 2 1 1 1 1 1 1 1 1 1 1 1 2 2 2 2 3 3 3 2 2 2 1 1 1 1 1 1 1 2 2 3 3 3 4
Wind_Direction
38 40 40 28 42 43 45 48 49 52 55 57 58 59 62 68 72 76 77 84 91 91 91 94 93 91 87 82 79 83 92 98 98 100 101 100 101 103 105 108 124 119 109
49 55 54 34 44 45 47 53 53 53 55 56 60 61 62 66 69 73 74 80 87 90 90 89 91 90 88 83 81 81 84 95 95 97 102 107 100 93 93 87 71 86 100
58 61 68 52 50 49 51 54 56 56 57 58 58 60 61 64 69 69 70 74 79 85 87 88 89 89 89 85 83 80 80 86 89 94 105 99 99 93 89 86 85 88 93
59 57 55 56 52 53 55 53 56 58 59 61 60 61 60 65 67 66 66 71 74 79 81 81 84 86 87 85 84 81 79 79 83 92 93 84 88 87 84 86 88 85 87
63 59 64 55 58 62 61 57 58 61 62 62 61 62 62 66 68 68 70 74 75 76 77 80 83 84 87 87 85 83 81 79 83 76 73 74 78 82 79 81 85 86 82
68 68 74 65 61 61 61 61 63 64 64 64 64 65 66 69 69 70 69 75 78 78 78 76 77 79 82 84 84 84 82 77 86 76 70 71 76 80 78 78 79 80 79
68 72 77 73 65 59 60 60 61 63 64 63 65 66 66 68 69 69 70 76 76 76 76 74 72 73 76 79 84 85 83 75 78 78 73 67 70 77 78 77 77 76 78
68 71 82 90 72 59 59 60 60 62 65 67 66 65 66 67 72 71 72 76 78 78 77 73 71 70 74 79 81 79 73 53 83 76 71 69 69 72 76 75 74 71 72
68 70 71 78 90 93 73 60 58 62 65 68 69 66 66 67 72 75 77 78 80 79 81 78 77 76 77 79 80 77 71 56 68 69 70 69 71 70 73 72 74 74 71
74 74 70 67 61 69 80 78 67 67 68 70 72 70 73 81 81 80 83 79 80 83 83 81 81 81 78 76 76 74 71 70 67 69 65 67 70 69 70 73 73 72 69
80 73 67 67 63 60 63 75 84 87 81 88 89 85 80 76 76 80 69 74 82 85 84 81 82 84 86 85 77 72 70 68 68 62 60 61 66 67 69 67 66 67 66
79 68 68 66 64 64 63 68 67 72 73 70 71 72 69 72 70 73 84 81 86 91 95 87 85 91 85 83 86 80 67 67 64 65 63 59 62 64 67 66 62 60 58
78 66 57 63 62 63 68 65 63 67 71 73 70 72 73 78 82 77 83 97 95 96 87 90 83 70 70 67 60 62 59 56 57 57 60 57 56 58 63 64 62 58 56
78 68 57 52 64 65 66 66 68 71 70 72 70 65 68 72 71 72 75 78 78 80 77 74 74 74 69 67 64 63 62 58 57 58 56 53 51 51 59 63 61 58 59
92 87 70 58 56 67 68 65 74 75 71 76 69 62 70 76 75 78 83 81 78 78 82 79 77 75 70 62 60 60 60 56 52 55 57 57 49 47 54 59 59 59 61
95 91 81 74 71 63 72 75 72 74 79 72 71 63 73 79 82 81 84 84 79 77 79 84 84 80 72 68 61 56 53 55 52 50 52 62 60 52 54 59 60 63 64
95 93 87 80 79 77 73 72 74 73 75 71 65 61 72 75 86 89 86 90 91 93 93 90 88 81 79 77 71 64 58 51 50 49 49 51 63 65 61 58 59 64 66
98 94 97 96 85 80 78 76 78 79 74 72 70 67 68 73 82 91 94 93 100 102 100 94 87 82 77 72 68 63 63 59 53 51 53 57 58 61 66 62 60 63 66
111 106 104 94 86 87 85 83 70 75 74 65 60 65 73 78 85 96 99 103 108 111 109 101 92 85 84 80 76 67 61 59 55 55 57 56 59 61 65 71 68 64 64
129 120 114 110 92 90 89 84 80 71 70 62 52 59 66 83 97 109 127 126 125 125 116 112 109 98 91 92 84 75 68 68 62 53 52 55 56 59 61 63 71 71 65
154 140 122 127 113 101 93 87 65 65 73 82 73 66 82 95 115 119 138 139 148 141 134 137 127 121 113 108 107 97 91 75 66 59 53 55 60 59 63 63 63 67 72
165 162 142 136 131 120 103 77 92 68 59 71 82 80 69 81 109 133 155 157 160 152 155 152 153 140 128 164 113 154 133 117 79 63 62 52 55 64 60 60 63 63 61
173 170 163 157 150 137 122 114 107 109 148 129 106 95 68 70 114 179 158 158 168 177 170 176 180 181 176 187 294 313 311 63 86 89 61 61 56 56 60 59 61 59 61
176 175 172 164 156 140 140 142 141 112 40 42 73 117 129 117 130 157 163 174 183 184 185 193 195 199 208 208 198 306 337 41 266 131 108 71 57 55 54 58 57 60 63
169 170 175 167 161 157 156 157 225 244 319 117 124 135 144 120 109 137 160 176 192 196 203 210 212 215 214 232 229 184 119 223 255 234 151 121 89 66 59 56 58 59 61
168 169 176 177 173 175 183 190 211 218 224 205 198 167 160 139 127 117 152 186 197 202 208 216 216 213 226 229 233 229 228 247 243 226 209 189 130 84 76 66 61 61 66
Height
1545 1543 1541 1541 1540 1540 1539 1538 1537 1537 1536 1536 1535 1534 1533 1533 1533 1533 1533 1533 1533 1533 1533 1533 1534 1534 1534 1534 1534 1533 1533 1533 1533 1533 1534 1534 1535 1536 1536 1537 1537 1538 1538
1546 1544 1542 1542 1541 1541 1540 1539 1538 1538 1537 1536 1536 1535 1535 1534 1534 1534 1533 1534 1534 1534 1534 1534 1535 1535 1535 1535 1535 1534 1534 1534 1535 1535 1535 1536 1536 1537 1537 1537 1538 1539 1538
1546 1545 1544 1543 1542 1542 1541 1540 1539 1539 1538 1538 1537 1537 1536 1536 1535 1534 1534 1534 1534 1535 1535 1535 1536 1536 1536 1536 1536 1536 1536 1536 1536 1536 1537 1538 1538 1538 1538 1538 1538 1539 1539
1547 1546 1545 1544 1543 1543 1542 1541 1541 1540 1539 1539 1539 1538 1538 1537 1536 1536 1536 1536 1535 1535 1536 1536 1537 1537 1537 1537 1537 1537 1537 1537 1537 1538 1539 1539 1539 1539 1539 1539 1539 1539 1540
1548 1547 1546 1545 1544 1544 1543 1542 1542 1541 1541 1540 1540 1540 1539 1539 1538 1538 1537 1537 1537 1537 1537 1538 1538 1538 1538 1538 1538 1538 1538 1539 1539 1540 1540 1540 1540 1539 1540 1540 1540 1540 1540
1549 1548 1547 1546 1546 1545 1544 1544 1543 1542 1542 1542 1541 1541 1541 1540 1540 1539 1539 1538 1538 1538 1539 1539 1539 1539 1540 1539 1539 1540 1540 1540 1541 1541 1541 1541 1541 1540 1541 1541 1541 1541 1541
1551 1550 1549 1548 1547 1546 1546 1545 1544 1544 1543 1543 1542 1542 1542 1542 1542 1541 1540 1539 1540 1540 1540 1541 1541 1541 1541 1540 1541 1541 1541 1541 1542 1542 1542 1542 1542 1541 1541 1542 1542 1542 1542
1552 1551 1551 1549 1549 1548 1547 1546 1546 1545 1545 1544 1544 1544 1544 1543 1543 1543 1543 1542 1542 1542 1542 1542 1542 1542 1542 1542 1542 1542 1542 1543 1544 1544 1543 1543 1542 1542 1542 1542 1542 1542 1542
1553 1553 1553 1552 1551 1550 1549 1548 1548 1547 1546 1546 1546 1545 1545 1545 1545 1545 1544 1544 1544 1544 1544 1544 1544 1544 1543 1543 1543 1543 1544 1544 1545 1545 1545 1544 1543 1543 1543 1543 1543 1543 1543
1554 1554 1554 1553 1553 1553 1552 1550 1549 1549 1548 1548 1547 1547 1547 1547 1547 1546 1546 1546 1546 1546 1546 1546 1546 1546 1545 1545 1545 1545 1546 1546 1547 1547 1546 1546 1544 1544 1543 1544 1544 1543 1543
1556 1556 1555 1555 1554 1554 1553 1552 1551 1551 1550 1550 1549 1549 1549 1550 1549 1549 1548 1548 1548 1548 1548 1548 1548 1548 1547 1547 1547 1547 1547 1548 1548 1548 1547 1546 1546 1545 1545 1544 1544 1544 1543
1557 1557 1557 1556 1556 1555 1555 1554 1554 1553 1552 1552 1552 1552 1552 1551 1551 1550 1550 1550 1550 1550 1550 1549 1549 1549 1549 1550 1549 1549 1549 1549 1549 1549 1548 1547 1546 1546 1546 1545 1545 1544 1544
1558 1558 1558 1558 1557 1557 1556 1556 1555 1555 1554 1554 1554 1553 1553 1553 1553 1553 1553 1552 1552 1552 1552 1551 1551 1551 1551 1551 1550 1551 1550 1550 1550 1549 1548 1548 1547 1547 1546 1546 1545 1545 1544
1559 1559 1559 1559 1558 1558 1558 1557 1556 1556 1556 1556 1556 1555 1555 1555 1555 1554 1554 1554 1554 1553 1553 1553 1553 1552 1552 1552 1552 1552 1551 1551 1551 1550 1549 1548 1548 1547 1547 1546 1545 1545 1544
1560 1560 1560 1559 1559 1559 1559 1558 1558 1558 1558 1558 1557 1557 1556 1556 1556 1556 1556 1555 1555 1555 1554 1554 1554 1554 1554 1554 1553 1553 1553 1552 1552 1551 1550 1549 1548 1547 1547 1546 1546 1545 1545
1561 1561 1560 1560 1560 1560 1560 1559 1559 1559 1559 1559 1558 1558 1558 1558 1558 1557 1557 1557 1556 1556 1556 1556 1556 1555 1555 1554 1554 1554 1553 1553 1553 1552 1551 1550 1549 1548 1547 1547 1546 1546 1545
1561 1561 1561 1561 1561 1561 1560 1560 1560 1560 1560 1560 1560 1560 1559 1559 1559 1559 1559 1558 1558 1558 1558 1557 1557 1557 1557 1556 1556 1555 1555 1554 1553 1553 1552 1551 1550 1549 1548 1548 1547 1547 1546
1562 1562 1561 1561 1561 1561 1561 1561 1561 1561 1561 1561 1561 1561 1561 1560 1560 1560 1560 1559 1559 1559 1559 1559 1559 1558 1558 1558 1558 1557 1556 1555 1555 1554 1553 1552 1551 1551 1550 1548 1548 1548 1547
1562 1562 1562 1562 1562 1562 1562 1562 1562 1562 1562 1562 1562 1561 1561 1561 1561 1561 1560 1560 1560 1560 1560 1560 1560 1560 1560 1559 1559 1558 1558 1557 1556 1555 1555 1554 1553 1552 1551 1550 1549 1549 1548
1562 1562 1562 1562 1562 1562 1562 1562 1562 1562 1562 1562 1562 1561 1561 1561 1561 1561 1561 1561 1561 1561 1561 1561 1561 1561 1561 1561 1561 1560 1560 1559 1558 1557 1556 1555 1554 1554 1553 1552 1551 1550 1550
1561 1562 1562 1562 1562 1562 1562 1562 1562 1562 1562 1562 1562 1562 1561 1561 1561 1561 1561 1561 1561 1562 1562 1562 1562 1562 1562 1562 1562 1562 1561 1560 1559 1558 1557 1556 1555 1554 1554 1553 1553 1552 1551
1560 1561 1562 1562 1562 1562 1562 1562 1562 1562 1562 1562 1562 1561 1561 1561 1561 1561 1562 1562 1561 1562 1562 1562 1562 1563 1562 1562 1563 1562 1562 1563 1561 1560 1558 1557 1557 1556 1555 1555 1554 1553 1553
1559 1560 1561 1561 1562 1562 1562 1562 1562 1562 1562 1562 1562 1561 1561 1561 1561 1561 1561 1561 1562 1562 1562 1562 1562 1562 1563 1562 1562 1563 1562 1562 1562 1561 1560 1559 1558 1557 1556 1556 1555 1554 1554
1558 1559 1560 1561 1561 1561 1562 1562 1562 1562 1562 1562 1561 1561 1561 1561 1561 1561 1561 1561 1561 1562 1562 1562 1562 1562 1562 1562 1562 1561 1562 1562 1562 1562 1561 1560 1559 1558 1557 1557 1556 1555 1554
1557 1558 1559 1560 1560 1561 1561 1561 1561 1561 1561 1561 1561 1560 1560 1560 1560 1560 1560 1561 1561 1561 1561 1561 1561 1562 1562 1562 1562 1561 1561 1561 1561 1561 1561 1561 1560 1559 1558 1557 1557 1556 1555
1555 1556 1557 1558 1559 1559 1560 1560 1560 1560 1560 1560 1560 1560 1560 1560 1559 1559 1559 1560 1560 1560 1560 1560 1560 1561 1561 1561 1561 1561 1561 1560 1561 1560 1560 1560 1560 1559 1558 1557 1557 1556 1556